Location: Asheville, NC
(35.6000°N, 82.5500°W)
Time: 20:16:30
(UTC-04:00)

Vanguard 1 Rocket - Pass Details

Date: 08 March 2018
Orbit: 653 x 4224 km, 34.3° (Epoch: 24 June)

Event Time Altitude Azimuth Distance (km) Brightness Sun altitude
Rises 16:31:31 0° 184° (S) 3,569 10.8 22.7°
Reaches altitude 10° 16:35:04 10° 159° (SSE) 3,032 10.2 22.1°
Maximum altitude 16:39:03 15° 127° (SE) 3,158 10.0 21.3°
Drops below altitude 10° 16:44:15 10° 97° (E) 4,208 10.4 20.4°
Sets 16:50:59 0° 78° (ENE) 6,052 11.0 19.1°
